Tracking 31032 objects as of 13-Jul-2025
HD Live streaming from Space Station
objects crossing your sky now

COSMOS 1761

Track COSMOS 1761 now!
COSMOS 1761 is classified as:


NORAD ID: 16849
Int'l Code: 1986-050A
Perigee: 4,933.0 km
Apogee: 35,422.3 km
Inclination: 70.2 °
Period: 717.5 minutes
Semi major axis: 26548 km
RCS: 12.1379 m2 (large)
Launch date: July 5, 1986
Source: Commonwealth of Independent States (former USSR) (CIS)
Launch site: PLESETSK MISSILE AND SPACE COMPLEX (PKMTR)
Your satellite tracking list
Your tracking list is empty




NASA's NSSDC Master Catalog

Two Line Element Set (TLE):
1 16849U 86050A   25193.71419941 -.00000538  00000-0  00000-0 0  9990
2 16849  70.1796  61.7243 5742142  13.1293 151.6165  2.00696019285785
Source of the keplerian elements: AFSPC